Other Public Products
Issued by NWS Grand Forks, ND

Home | Current Version | Previous Version | Graphics & Text | Print | Product List | Glossary On
Versions: 1 2 3 4 5 6 7 8 9 10 11 12 13 14 15 16 17 18 19 20 21 22 23 24 25 26 27 28 29 30 31 32 33 34 35 36 37 38 39 40 41 42 43 44 45 46 47 48 49 50
000
FPUS83 KFGF 211331
OPUFGF
PRAIRIE TO PINES WEATHER ROUNDUP
NATIONAL WEATHER SERVICE EASTERN NORTH DAKOTA/GRAND FORKS ND
800 AM CDT THU AUG 21 2014

 **SATELLITE DATA USED TO AUGMENT SKY COVER AT AUTOMATED STATIONS**
 *****  WEATHER ACROSS EASTERN NORTH DAKOTA  *****

CITY           SKY/WX    TMP DP  RH WIND       PRES   REMARKS
GRAND FORKS    CLOUDY    69  65  86 SE6       29.77R
GRAND FORKS AF CLOUDY    69  69  99 E3        29.78S
GRAND CITY NWS   N/A     50 N/A N/A SE2         N/A
BUXTON           N/A     68  68  99 E3          N/A
DEVILS LAKE    CLOUDY    70  63  78 E8        29.75S
FARGO          CLOUDY    71  68  90 SE5       29.74S
WAHPETON ARPT  SUNNY     68  64  88 S6        29.75R
$$

 *****  WEATHER ACROSS CENTRAL AND WESTERN NORTH DAKOTA  *****

CITY           SKY/WX    TMP DP  RH WIND       PRES   REMARKS
JAMESTOWN      PTSUNNY   70  67  90 CALM      29.75R
BISMARCK       CLOUDY    66  64  93 N8        29.82R
MINOT          SUNNY     64  62  93 NW6       29.81R
MINOT AFB      SUNNY     62  62 100 NW10      29.81R
GARRISON         N/A     65  64  97 N7        29.82R
WILLISTON      CLEAR     58  57  97 SE5       29.89R FOG
DICKINSON      CLEAR     57  55  93 W7        29.88R
HETTINGER      PTCLDY    57  54  89 NW6       29.89S
$$

 *****  OTHER OBSERVATIONS NORTHEAST NORTH DAKOTA  *****

CITY           SKY/WX    TMP DP  RH WIND       PRES   REMARKS
WALHALLA         N/A     66  66 100 SE9       29.76F
LANGDON        CLOUDY    66  64  94 SE5       29.79R FOG
CAVALIER       FAIR      66  64  94 E6        29.79F
GRAFTON        CLOUDY    66  66 100 E8        29.78F
CANDO          PTSUNNY   66  66 100 E8        29.78R FOG
FORT TOTTEN      N/A     67  66  97 SE6       29.95S
ROLLA          CLOUDY    64  64 100 N8        29.82R
RUGBY          PTSUNNY   64  64 100 N10       29.79R
 ***** THE ABOVE OBSERVATIONS ARE NON NWS ARE NOT QUALITY
        CONTROLLED AND MAY MIS-REPORT RAIN FOR SNOW...
$$

 *****  OTHER OBSERVATIONS SOUTHEAST NORTH DAKOTA *****

CITY           SKY/WX    TMP DP  RH WIND       PRES   REMARKS
COOPERSTOWN    NOT AVBL
VALLEY CITY    CLOUDY    68  68 100 CALM      29.76R
OAKES          NOT AVBL
GWINNER        SUNNY     72  72 100 S12       29.75R
SHEYENNE NWR     N/A     70  68  92 S6        29.95
BUFFALO          N/A     69  66  91 E2          N/A
WYNDMERE       NOT AVBL
 ***** THE ABOVE OBSERVATIONS ARE NON NWS ARE NOT QUALITY
       CONTROLLED AND MAY MIS-REPORT RAIN FOR SNOW...
$$

  *****  WEATHER ACROSS NORTHERN MINNESOTA  *****

CITY           SKY/WX    TMP DP  RH WIND       PRES   REMARKS
FLAG ISLAND    CLOUDY    64  61  88 SE8       29.85F
WARROAD        CLOUDY    63  57  82 SE8       29.85S
ROSEAU         CLOUDY    64  59  82 E6        29.83S
HALLOCK        PTSUNNY   68  64  88 E6        29.79F
THF RVR FALLS  CLOUDY    66  63  88 E7        29.80S
HALSTAD          N/A     69  66  91 E5          N/A
FOSSTON        CLOUDY    64  61  88 CALM      29.81R
BAUDETTE       CLOUDY    60  58  92 SE10      29.87F
WASKISH        CLOUDY    61  59  94 E12       29.85F
CROOKSTON      PTSUNNY   68  64  88 SE8       29.79R
$$
  *****  WEATHER ACROSS CENTRAL AND WEST MINNESOTA  *****

CITY           SKY/WX    TMP DP  RH WIND       PRES   REMARKS
BEMIDJI        CLOUDY    63  60  90 E13       29.82S
PARK RAPIDS    CLOUDY    65  64  97 E8        29.79R
WADENA         CLOUDY    66  64  94 SE6       29.79R
DETROIT LAKES  CLOUDY    68  64  88 SE7       29.80R
MOORHEAD       SUNNY     72  72 100 CALM      29.76S
FERGUS FALLS   SUNNY     72  66  83 SE8       29.74F
ELBOW LAKE     FAIR      70  67  92 SE12      29.74S
MORRIS MN      SUNNY     72  70  94 SE9       29.74R
STAPLES        CLOUDY    64  63  94 E7        29.78R
WHEATON        MOSUNNY   66  64  94 SE8       29.76R
$$
  *****  WEATHER ELSEWHERE ACROSS MINNESOTA  *****

CITY           SKY/WX    TMP DP  RH WIND       PRES   REMARKS
DULUTH         LGT RAIN  61  59  93 E12       29.92R VSB 1/4
INTRNTL FALLS  CLOUDY    60  59  96 SE9       29.91S
ELY            CLOUDY    61  57  88 SE6       29.95S
CLOQUET        CLOUDY    61  59  94 E9        29.90F FOG
BRAINERD       LGT RAIN  65  64  97 SE16G25   29.77F
HIBBING        CLOUDY    62  58  86 E8        29.89F
ALEXANDRIA     SUNNY     69  65  86 SE12      29.77R
SAINT CLOUD    CLOUDY    69  66  90 SE12      29.77F
MINNEAPOLIS    CLOUDY    71  69  93 SE5       29.81R
$$

  *****  WEATHER ACROSS SOUTH DAKOTA  *****

CITY           SKY/WX    TMP DP  RH WIND       PRES   REMARKS
SIOUX FALLS    CLOUDY    73  71  93 CALM      29.77R
BROOKINGS      NOT AVBL
WATERTOWN      MOSUNNY   68  66  93 S3        29.77S
HURON          MOSUNNY   69  66  90 NW7       29.77R
SISSETON         N/A     69  68  96 S8        29.73S
ABERDEEN       SUNNY     66  65  96 SW8       29.77R
MITCHELL       CLOUDY    71  70  96 NW8       29.77R
PIERRE         SUNNY     66  65  96 NW9       29.81R
MOBRIDGE       CLOUDY    66  66 100 NW12      29.79R FOG
RAPID CITY     MOCLDY    63  60  90 CALM      29.93R
$$

  *****  SOME WEATHER IN NEARBY STATES *****

CITY           SKY/WX    TMP DP  RH WIND       PRES   REMARKS
GLASGOW MT     HVY RAIN  62  59  90 N6        29.94R FOG
GREAT FALLS MT CLOUDY    54  54 100 N7        30.05R
CHEYENNE WY    PTCLDY    59  44  57 W14       30.13R
SCOTTSBLUFF NE CLEAR     59  51  75 N7        29.99R
OMAHA NE       LGT RAIN  76  68  76 S12       29.79F
DES MOINES IA  CLOUDY    78  69  73 SW13      29.83R
DAVENPORT IA   CLOUDY    74  70  87 E7        29.93R
CHICAGO IL     LGT RAIN  72  67  84 SW10      29.98R
EAU CLAIRE WI  RAIN      66  66 100 S5        29.88F FOG
LA CROSSE WI   TSTM      71  68  90 SW6       29.89R
$$

  *****  SOME NATIONAL WEATHER *****

CITY           SKY/WX    TMP DP  RH WIND       PRES   REMARKS
LA GUARDIA NY  MOSUNNY   74  64  71 CALM      30.06R
RALEIGH NC     MOSUNNY   78  71  79 VRB6      30.08R
ATLANTA GA     MOSUNNY   74  68  81 NW3       30.15R
NEW ORLEANS LA PTSUNNY   83  76  79 CALM      30.13R HX  91
OKLAHOMA CITY  MOSUNNY   74  70  87 S13       29.98R
ALBUQUERQUE NM PTCLDY    66  44  45 CALM      30.15R
SALT LAKE CITY CLOUDY    67  52  58 S7        30.03R
LOS ANGELES CA PTCLDY    66  61  82 NW7       29.94R
BOISE ID       CLEAR     59  44  57 SE6       29.96R
SEATTLE WA     MOCLDY    53  50  89 S5        30.04R
$$

*** WEATHER ACROSS MANITOBA...SASKATCHEWAN AND ONTARIO ***
                ***ONTARIO***

CITY           SKY/WX    TMP DP  RH WIND       PRES   REMARKS
GERALDTON      CLOUDY    63  61  94 SE5       30.01R FOG
THUNDER BAY    CLOUDY    63  61  94 VRB2      29.99S
SIOUX LOOKOUT  PTSUNNY   61  61 100 SE6       29.96R
TORONTO        MOSUNNY   70  64  83 SW2       29.96S
BIG TROUT LK   SUNNY     64  57  77 S9        29.96S
PICKLE LAKE    CLOUDY    61  59  94 SE5       29.98R
DRYDEN         CLOUDY    63  61  94 S9        29.94S
KENORA         MOSUNNY   63  61  94 SE9       29.90F
$$
                *** MANITOBA***

CITY           SKY/WX    TMP DP  RH WIND       PRES   REMARKS
BRANDON        CLOUDY    64  63  94 E3        29.83R
DAUPHIN        CLOUDY    64  64 100 CALM      29.82R
ISLAND LAKE    MOSUNNY   68  61  77 SE7       29.84R
PILOT MOUND      N/A     64  64 100 NE8         N/A
THE PAS        CLOUDY    61  57  88 N13G21    29.85R
THOMPSON       TSTM      57  57 100 NW6       29.80  FOG
WINNIPEG       CLOUDY    66  63  88 SE8       29.81S
LYNN LAKE      CLOUDY    54  52  94 MISG      29.90S
CHURCHILL      PTSUNNY   50  48  93 NW12      29.79S FOG
GILLAM         CLOUDY    66  63  88 CALM      29.78S
$$
                ***SASKATCHEWAN***

CITY           SKY/WX    TMP DP  RH WIND       PRES   REMARKS
ESTEVAN        FOG       59  59 100 NW8       29.88  VSB 1/8
KINDERSLEY     CLOUDY    55  54  94 N10       30.04R FOG
LLOYDMINSTER   MOCLDY    50  48  93 N6        30.09R
PRINCE ALBERT  MOCLDY    55  54  94 N5        29.99R
REGINA         CLOUDY    59  57  94 N15       29.93R



USA.gov is the U.S. government's official web portal to all federal, state and local government web resources and services.